Погода в Островском

Россия / Костромская область     57°48′18″N   42°14′26″E
темп.,
°C
ветер,
м/с
пор.,
м/с
влажн.,
%
обл.,
%
осадки,
мм/ч
давл.,
гПа
погр.,
м
18 января, пн
пн1800:00−22зюз129744 0.0 101920
03:00−23з129825 0.0 101920
06:00−22зюз129651 0.0 101820
09:00−22юз229743 0.0 101930
12:00−18зюз139581 0.0 1019150
15:00−17юз129673 0.0 101924
18:00−20юз229966 0.0 101922
21:00−21зюз129973 0.0 101920
19 января, вт
вт1900:00−20юз229992 0.1 101970
03:00−20з119894 0.1 101920
06:00−20ю1199100 0.0 101820
09:00−18юз1298100 0.1 101856
12:00−16зюз019396 0.0 1017172
15:00−15зюз019598 0.1 1016103
18:00−17юз119895 0.1 101620
21:00−17сз129796 0.2 101621
20 января, ср
ср2000:00−19зсз119887 0.0 101620
03:00−17з229792 0.1 101630
06:00−16зсз249790 0.1 101597
09:00−16з249787 0.1 1016111
12:00−13з359482 0.1 1016247
15:00−13з379591 0.1 1016258
18:00−15з379796 0.0 1017196
21:00−16з259790 0.1 1017113
21 января, чт
чт2100:00−18з259750 0.0 101889
03:00−19зюз249842 0.0 101883
06:00−19юз259876 0.0 101786
09:00−17ююз369788 0.0 1016174
12:00−14ю4990100 0.0 1013277
15:00−12ююв51295100 0.8 1007432
18:00−11ююз51194100 3.1 1004741
21:00−8юз3996100 5.3 1001545
22 января, пт
пт2200:00−7ююз1297100 1.4 100071
03:00−7ссв3696100 3.0 1001259
06:00−11ссв3694100 0.1 1004251
09:00−15ссв2595100 0.1 1007130
12:00−13св249299 0.0 1010244
15:00−14св259498 0.0 1012233
18:00−18всв259790 0.0 101590
21:00−20всв379784 0.0 1016132